Niagara Falls International Airport

Airport
ICAO code: 
KIAG
IATA Code: 
IAG
Summary
ICAO Region: 
NAM
Territory: 
Location: 
Niagara Falls, New York,
Serving: 
Niagara Falls
Elevation: 
589 ft
Coordinates: 
Aerial View: 
43° 6' 16.877" N, 78° 56' 29.243" W
Airport GND: 
Aircraft Ground De/Anti Icing
Airport LOS: 
Parallel Runway Operation
Airport WX: 
Lake Effect Snow
Metar
Observation
KIAG 182353Z 13007KT 10SM OVC039 M06/M11 A3001 RMK AO2 SLP180 6//// T10611106 11050 21078 58011 PNO
Station
Niagara Falls, Niagara Falls International Airport
Date/Time
2022-01-18 23:53:00
Wind direction
130°
Wind speed
07 kts
Lowest cloud amount
overcast
Temperature
-6.1°C
Dew point
-10.6°C
Humidity
70%
Weather condition
n/a

Niagara Falls International Airport is a joint civil-military (USAFR) airport located 6 km east of the central business district of Niagara Falls, in Niagara County, New York.

Climatology

Humid Continental climate (Köppen climate classification Dfb) - Variable weather patterns and a large seasonal temperature variance. Summers are often warm and humid with frequent thunderstorms and winters can be very cold with frequent snowfall and persistent snow cover.

Runways

Designator Length Width Surface Rops
10R/28L 1211 23 ASP Yes/Yes
6/24 1582 46 ASP Yes/Yes
10L/28R 2996 46 PEM Yes/Yes
Airport map: 
Aerial View: 

SKYbrary Partners:

Safety knowledge contributed by: